Location: Krasnoyarskiy Pitomnik
(51.1333°N, 71.6167°E)
Time: 09:29:06
(UTC+00:00)

CZ-2D R/B - Pass Details

Date: 22 October 2021
Orbit: 791 x 845 km, 98.7° (Epoch: 06 December)

Event Time Altitude Azimuth Distance (km) Brightness Sun altitude
Rises 22:48:40 0° 5° (N) 3,310 5.6 -28.9°
Reaches altitude 10° 22:51:44 10° 347° (NNW) 2,372 4.6 -28.4°
Enters shadow 22:52:18 12° 341° (NNW) 2,236 4.4 -28.3°
